Regional Weather Roundup
Issued by NWS

Home | Current Version | Previous Version | Text Only | Print | Product List | Glossary On
Versions: 1 2 3 4 5 6 7 8 9 10 11 12 13 14 15 16 17 18 19 20 21 22 23 24 25 26 27 28 29 30 31 32 33 34 35 36 37 38 39 40 41 42 43 44 45 46 47 48 49 50
000
ASUS43 KDMX 281003
RWRIA

WEATHER ROUNDUP FOR IOWA
NATIONAL WEATHER SERVICE DES MOINES IA
500 AM CDT THU APR 28 2016

NOTE: "FAIR" INDICATES FEW OR NO CLOUDS BELOW 12,000 FEET WITH NO
SIGNIFICANT WEATHER AND/OR OBSTRUCTIONS TO VISIBILITY.

* - THESE STATIONS ARE NOT NWS STATIONS...THUS NOT UNDER NWS
QUALITY CONTROL.  THEY ALSO DO NOT REPORT WEATHER SUCH
AS PRECIPITATION OR FOG.

IAZ001>003-012>014-020>022-031>034-043>046-281100-
   NORTHWEST IOWA

CITY           SKY/WX    TMP DP  RH WIND       PRES   REMARKS
CARROLL *      CLOUDY    46  46 100 SW7       29.68R
CHEROKEE *     RAIN      41  41 100 NE9       29.72R
DENISON *      CLOUDY    45  45 100 N7        29.67R FOG
LE MARS *      CLOUDY    43  41  93 NE12      29.75R
ORANGE CITY *  CLOUDY    41  39  93 NE8G17    29.74R
SHELDON *      CLOUDY    41  39  93 NE21G26   29.73R
SIOUX CITY     LGT RAIN  45  41  86 NE10      29.74R
SPENCER        CLOUDY    41  38  89 NE20      29.74R
STORM LAKE *   LGT RAIN  43  41  93 NE18G25   29.70R
$$

IAZ055>058-069>071-079>083-090>094-281100-
   SOUTHWEST IOWA

CITY           SKY/WX    TMP DP  RH WIND       PRES   REMARKS
ATLANTIC *     CLOUDY    45  45 100 W5        29.70R
AUDUBON *      CLOUDY    45  43  93 SW6       29.70R
CLARINDA *       N/A    N/A N/A N/A MISG        N/A
COUNCIL BLFS * CLOUDY    45  45 100 SW5       29.70R FOG
CRESTON *      CLOUDY    45  45 100 SW5       29.70R FOG
HARLAN  *      CLOUDY    45  43  93 SW5       29.73R
LAMONI         CLOUDY    45  44  97 S8        29.69S
RED OAK *      MOCLDY    46  45  93 W3        29.70R
SHENANDOAH *   CLOUDY    46  46 100 VRB6      29.71R FOG
$$

IAZ047>049-059>061-072>074-084-281100-
   CENTRAL IOWA

CITY           SKY/WX    TMP DP  RH WIND       PRES   REMARKS
AMES           CLOUDY    46  44  93 SE3       29.70R
ANKENY *       CLOUDY    46  46 100 CALM      29.70R
BOONE *        CLOUDY    45  45 100 SE5       29.69R
CHARITON *     CLOUDY    48  43  81 SW7       29.70R
DES MOINES     CLOUDY    48  42  80 S5        29.70R
GRINNELL*      CLOUDY    48  46  93 E5        29.71R FOG
KNOXVILLE *    CLOUDY    48  46  93 CALM      29.69R FOG
MARSHALLTOWN   FOG       46  45  96 NE12      29.71R VSB 1
NEWTON *       CLOUDY    48  48 100 SE3       29.70R FOG
PELLA *        CLOUDY    48  48  98 SE5       29.71S FOG
$$

IAZ004>006-015-016-023>025-035-036-281100-
   NORTH CENTRAL IOWA

CITY           SKY/WX    TMP DP  RH WIND       PRES   REMARKS
ALGONA *       CLOUDY    43  41  93 NE14G21   29.74R
CLARION *      CLOUDY    43  43 100 E17       29.73R
ESTHERVILLE    CLOUDY    39  39 100 NE20      29.76R FOG     WCI  29
FORT DODGE *   CLOUDY    43  39  87 E12       29.71R
MASON CITY     CLOUDY    40  38  93 E15       29.79R FOG     WCI  32
FOREST CITY *  CLOUDY    37  37 100 NE13      29.76S FOG     WCI  29
WEBSTER CITY * CLOUDY    46  46 100 E13       29.69R FOG
IOWA FALLS *   CLOUDY    46  45  93 E15       29.73R FOG
$$

IAZ007>011-017>019-026>030-037>042-050>054-066-281100-
   NORTHEAST IOWA

CITY           SKY/WX    TMP DP  RH WIND       PRES   REMARKS
CEDAR RAPIDS   CLOUDY    47  47 100 E7        29.72R FOG
CHARLES CITY * CLOUDY    41  39  93 E17       29.77R
CLINTON *      CLOUDY    47  45  93 E9        29.75R
DECORAH *      CLOUDY    41  34  75 E10       29.79R
DUBUQUE        CLOUDY    43  41  93 NE10      29.75R
MONTICELLO *   CLOUDY    46  45  93 E7        29.75R
OELWEIN *      CLOUDY    43  43 100 E12       29.76S
WATERLOO       CLOUDY    45  41  86 E14       29.74R
$$

IAZ064-065-067-068-078-281100-
   EAST CENTRAL IOWA

CITY           SKY/WX    TMP DP  RH WIND       PRES   REMARKS
DAVENPORT      CLOUDY    49  47  93 E3        29.73R FOG
IOWA CITY      CLOUDY    50  48  93 E3        29.74R FOG
MT. PLEASANT * FOG       52  52 100 SW3       29.72R VSB 1/4
MUSCATINE *    PTCLDY    48  46  93 NW5       29.73R FOG
QUAD CITIES    CLOUDY    49  46  90 E3        29.72R FOG
$$

IAZ062-063-075>077-085>089-095>099-281100-
   SOUTHEAST IOWA

CITY           SKY/WX    TMP DP  RH WIND       PRES   REMARKS
BURLINGTON     CLEAR     49  49 100 S6        29.72R FOG
FAIRFIELD *    FOG       46  46 100 S6        29.71S VSB 1/2
FORT MADISON * CLEAR     50  50 100 S6        29.73R FOG
KEOKUK *       CLEAR     50  50 100 CALM      29.72R FOG
OSKALOOSA *    CLOUDY    46  46 100 CALM      29.71R
OTTUMWA        CLOUDY    47  46  97 W8        29.70R
WASHINGTON *   FOG       50  50 100 CALM      29.73S VSB<1/4
$$

ABBREVIATIONS USED IN REMARKS
   TC - TEMPERATURES IN CELSIUS
  WCI - WIND CHILL INDEX
   HX - HEAT INDEX
  VSB - VISIBILITY
$$





USA.gov is the U.S. government's official web portal to all federal, state and local government web resources and services.